Terminal Aerodrome Forecast
Issued by NWS North Platte, NE

Home | Current Version | Previous Version | Graphics & Text | Print | Product List | Glossary On
Versions: 1 2 3 4 5 6 7 8 9 10 11 12 13 14 15 16 17
000
FTUS43 KLBF 170400 AAA
TAFVTN
TAF AMD
KVTN 170405Z 1704/1724 01006KT P6SM OVC017
     FM170600 04006KT 5SM BR OVC060
     FM171500 13009KT P6SM BKN060=

USA.gov is the U.S. government's official web portal to all federal, state and local government web resources and services.